N760CC KMIA-MMUN

Flight info

Callsign N760CC
Flight time 1h 46m
Altitude 38000
Route GLADZ4 LULLS Y196 CANOA UB879 NOSAT NOSAT1B
Aircraft E190/M-SDE1E2E3FGHIJ3J4J7P2RWXY/LB1D1G1

Departure

Time 2026-05-03 21:46
Airport Miami International Airport (KMIA)

Arrival

Time 2026-05-03 23:32
Airport Cancún International Airport (MMUN)
Time Latitude Longitude Altitude Speed Heading
2026-05-03 21:02 25.80531 -80.28752 14 ft 0 kts 176°
2026-05-03 21:25 25.80532 -80.28753 14 ft 1 kts 169°
2026-05-03 21:25 25.80534 -80.28750 14 ft 3 kts 124°
2026-05-03 21:25 25.80545 -80.28768 16 ft 3 kts 126°
2026-05-03 21:25 25.80555 -80.28783 17 ft 1 kts 125°
2026-05-03 21:26 25.80555 -80.28784 17 ft 3 kts 125°
2026-05-03 21:28 25.80554 -80.28783 17 ft 0 kts 135°
2026-05-03 21:28 25.80540 -80.28784 14 ft 4 kts 179°
2026-05-03 21:28 25.80522 -80.28784 14 ft 0 kts 181°
2026-05-03 21:40 25.80520 -80.28784 14 ft 2 kts 181°
2026-05-03 21:40 25.80478 -80.28791 14 ft 9 kts 209°
2026-05-03 21:40 25.80453 -80.28874 15 ft 14 kts 268°
2026-05-03 21:40 25.80449 -80.28991 13 ft 17 kts 268°
2026-05-03 21:41 25.80442 -80.29131 14 ft 19 kts 266°
2026-05-03 21:41 25.80435 -80.29285 14 ft 19 kts 269°
2026-05-03 21:41 25.80431 -80.29427 14 ft 20 kts 267°
2026-05-03 21:41 25.80425 -80.29587 14 ft 22 kts 268°
2026-05-03 21:42 25.80420 -80.29713 14 ft 13 kts 267°
2026-05-03 21:42 25.80416 -80.29825 14 ft 16 kts 267°
2026-05-03 21:42 25.80409 -80.29957 14 ft 18 kts 268°
2026-05-03 21:42 25.80405 -80.30038 14 ft 8 kts 265°
2026-05-03 21:43 25.80388 -80.30066 15 ft 0 kts 193°
2026-05-03 21:43 25.80379 -80.30068 14 ft 5 kts 193°
2026-05-03 21:43 25.80316 -80.30083 14 ft 10 kts 181°
2026-05-03 21:44 25.80295 -80.30035 14 ft 7 kts 89°
2026-05-03 21:44 25.80296 -80.30028 14 ft 1 kts 85°
2026-05-03 21:44 25.80297 -80.30020 14 ft 0 kts 85°
2026-05-03 21:45 25.80297 -80.30016 14 ft 3 kts 86°
2026-05-03 21:45 25.80313 -80.29645 13 ft 100 kts 87°
2026-05-03 21:45 25.80356 -80.28505 218 ft 179 kts 89°
2026-05-03 21:46 25.80312 -80.27036 1294 ft 207 kts 94°
2026-05-03 21:46 25.80209 -80.25448 2709 ft 201 kts 95°
2026-05-03 21:46 25.80109 -80.24001 3349 ft 189 kts 96°
2026-05-03 21:46 25.80007 -80.22511 3598 ft 197 kts 95°
2026-05-03 21:47 25.79910 -80.20966 3838 ft 208 kts 93°
2026-05-03 21:47 25.80101 -80.19268 3707 ft 235 kts 78°
2026-05-03 21:47 25.80665 -80.17536 3804 ft 243 kts 54°
2026-05-03 21:47 25.81959 -80.16368 3969 ft 243 kts 20°
2026-05-03 21:48 25.83601 -80.16059 4213 ft 241 kts
2026-05-03 21:48 25.85286 -80.15899 4649 ft 247 kts
2026-05-03 21:48 25.87076 -80.15842 4824 ft 265 kts 355°
2026-05-03 21:48 25.88970 -80.16005 5036 ft 281 kts 351°
2026-05-03 21:49 25.90950 -80.16341 5113 ft 296 kts 343°
2026-05-03 21:49 25.92872 -80.16961 5146 ft 280 kts 340°
2026-05-03 21:49 25.94691 -80.17581 5222 ft 267 kts 339°
2026-05-03 21:49 25.96412 -80.18216 5177 ft 253 kts 334°
2026-05-03 21:50 25.97734 -80.19373 5037 ft 238 kts 303°
2026-05-03 21:50 25.98533 -80.20961 4985 ft 232 kts 291°
2026-05-03 21:50 25.99101 -80.22640 4997 ft 242 kts 285°
2026-05-03 21:50 25.99450 -80.24599 5965 ft 260 kts 277°
2026-05-03 21:51 25.99678 -80.26633 7297 ft 269 kts 273°
2026-05-03 21:51 25.99753 -80.28660 8949 ft 263 kts 269°
2026-05-03 21:51 25.99769 -80.30715 10142 ft 270 kts 269°
2026-05-03 21:51 25.99767 -80.32871 10899 ft 288 kts 268°
2026-05-03 21:52 25.99766 -80.35150 11785 ft 297 kts 268°
2026-05-03 21:52 25.99766 -80.37461 12825 ft 302 kts 268°
2026-05-03 21:52 25.99592 -80.39792 13806 ft 305 kts 254°
2026-05-03 21:52 25.98819 -80.41993 14692 ft 307 kts 245°
2026-05-03 21:53 25.97829 -80.44111 15539 ft 311 kts 242°
2026-05-03 21:53 25.96703 -80.46237 15894 ft 331 kts 240°
2026-05-03 21:53 25.95460 -80.48464 16003 ft 336 kts 239°
2026-05-03 21:53 25.94235 -80.50555 16025 ft 315 kts 237°
2026-05-03 21:54 25.92940 -80.52466 16081 ft 314 kts 233°
2026-05-03 21:54 25.91590 -80.54385 16179 ft 316 kts 234°
2026-05-03 21:54 25.90238 -80.56310 16229 ft 316 kts 234°
2026-05-03 21:54 25.88879 -80.58232 16196 ft 316 kts 234°
2026-05-03 21:55 25.87527 -80.60161 16138 ft 317 kts 234°
2026-05-03 21:55 25.86634 -80.61424 16163 ft 311 kts 234°
2026-05-03 21:55 25.84844 -80.63966 16271 ft 316 kts 234°
2026-05-03 21:55 25.83449 -80.65865 16351 ft 318 kts 233°
2026-05-03 21:56 25.82106 -80.67808 16230 ft 317 kts 234°
2026-05-03 21:56 25.80763 -80.69748 16126 ft 316 kts 237°
2026-05-03 21:56 25.79618 -80.71819 16082 ft 315 kts 243°
2026-05-03 21:56 25.78627 -80.73985 16078 ft 314 kts 245°
2026-05-03 21:57 25.77716 -80.76184 16095 ft 314 kts 248°
2026-05-03 21:57 25.77004 -80.78475 16103 ft 314 kts 252°
2026-05-03 21:57 25.76347 -80.80790 16147 ft 315 kts 253°
2026-05-03 21:57 25.75713 -80.83110 16152 ft 314 kts 253°
2026-05-03 21:58 25.75085 -80.85429 16134 ft 314 kts 253°
2026-05-03 21:58 25.74454 -80.87748 16138 ft 313 kts 253°
2026-05-03 21:58 25.73822 -80.90054 16173 ft 313 kts 253°
2026-05-03 21:58 25.73204 -80.92334 16148 ft 312 kts 253°
2026-05-03 21:59 25.72577 -80.94637 16119 ft 312 kts 253°
2026-05-03 21:59 25.71947 -80.96940 16111 ft 312 kts 253°
2026-05-03 21:59 25.71315 -80.99242 16090 ft 312 kts 253°
2026-05-03 21:59 25.70687 -81.01541 16084 ft 312 kts 253°
2026-05-03 22:00 25.70056 -81.03842 16083 ft 311 kts 253°
2026-05-03 22:00 25.69427 -81.06139 16094 ft 312 kts 253°
2026-05-03 22:00 25.68796 -81.08438 16104 ft 312 kts 253°
2026-05-03 22:00 25.68161 -81.10749 16478 ft 314 kts 253°
2026-05-03 22:01 25.67733 -81.12306 17367 ft 315 kts 253°
2026-05-03 22:01 25.67089 -81.14650 18375 ft 320 kts 253°
2026-05-03 22:01 25.66437 -81.17025 19277 ft 323 kts 253°
2026-05-03 22:01 25.65777 -81.19419 20157 ft 326 kts 252°
2026-05-03 22:02 25.64804 -81.21699 21013 ft 331 kts 238°
2026-05-03 22:02 25.63434 -81.23770 21881 ft 335 kts 233°
2026-05-03 22:02 25.61940 -81.25725 22726 ft 339 kts 231°
2026-05-03 22:02 25.60354 -81.27682 23526 ft 343 kts 230°
2026-05-03 22:03 25.58733 -81.29627 24241 ft 344 kts 230°
2026-05-03 22:03 25.57023 -81.31506 24863 ft 349 kts 226°
2026-05-03 22:03 25.55222 -81.33320 25456 ft 352 kts 226°
2026-05-03 22:03 25.53392 -81.35145 26056 ft 355 kts 226°
2026-05-03 22:04 25.51546 -81.36977 26639 ft 359 kts 226°
2026-05-03 22:04 25.49680 -81.38825 27210 ft 362 kts 226°
2026-05-03 22:04 25.47798 -81.40689 27759 ft 365 kts 226°
2026-05-03 22:04 25.45897 -81.42571 28294 ft 368 kts 226°
2026-05-03 22:05 25.43979 -81.44468 28805 ft 371 kts 226°
2026-05-03 22:05 25.42046 -81.46381 29299 ft 374 kts 226°
2026-05-03 22:05 25.40100 -81.48304 29753 ft 377 kts 226°
2026-05-03 22:05 25.38124 -81.50262 29901 ft 386 kts 226°
2026-05-03 22:06 25.36118 -81.52237 30338 ft 386 kts 226°
2026-05-03 22:06 25.34118 -81.54213 30849 ft 384 kts 226°
2026-05-03 22:06 25.32132 -81.56174 31382 ft 382 kts 226°
2026-05-03 22:06 25.30150 -81.58128 31923 ft 380 kts 226°
2026-05-03 22:07 25.28187 -81.60066 32499 ft 377 kts 226°
2026-05-03 22:07 25.26235 -81.61989 33057 ft 375 kts 226°
2026-05-03 22:07 25.24293 -81.63903 33614 ft 373 kts 226°
2026-05-03 22:07 25.22362 -81.65805 34135 ft 371 kts 226°
2026-05-03 22:08 25.20446 -81.67691 34623 ft 368 kts 226°
2026-05-03 22:08 25.18458 -81.69469 35035 ft 371 kts 219°
2026-05-03 22:08 25.16182 -81.70854 35455 ft 375 kts 213°
2026-05-03 22:08 25.13799 -81.72082 35749 ft 377 kts 211°
2026-05-03 22:09 25.11406 -81.73241 36191 ft 376 kts 210°
2026-05-03 22:09 25.08951 -81.74234 36259 ft 379 kts 206°
2026-05-03 22:09 25.06449 -81.75160 36024 ft 380 kts 206°
2026-05-03 22:10 25.01466 -81.76958 35989 ft 379 kts 206°
2026-05-03 22:10 24.96453 -81.78760 35977 ft 379 kts 206°
2026-05-03 22:11 24.91433 -81.80564 35976 ft 379 kts 206°
2026-05-03 22:11 24.86414 -81.82366 35976 ft 379 kts 206°
2026-05-03 22:12 24.81395 -81.84167 35979 ft 379 kts 205°
2026-05-03 22:12 24.76357 -81.85979 35964 ft 384 kts 205°
2026-05-03 22:13 24.71271 -81.87795 35987 ft 384 kts 205°
2026-05-03 22:13 24.66195 -81.89611 35976 ft 384 kts 205°
2026-05-03 22:14 24.61118 -81.91425 35982 ft 384 kts 205°
2026-05-03 22:14 24.56042 -81.93239 35972 ft 384 kts 205°
2026-05-03 22:15 24.50997 -81.95114 35975 ft 379 kts 210°
2026-05-03 22:15 24.48758 -81.96504 35975 ft 372 kts 221°
2026-05-03 22:15 24.46818 -81.98400 35975 ft 366 kts 232°
2026-05-03 22:16 24.44294 -82.03126 35976 ft 362 kts 248°
2026-05-03 22:16 24.42477 -82.08284 35971 ft 362 kts 249°
2026-05-03 22:17 24.40527 -82.13377 35977 ft 363 kts 245°
2026-05-03 22:17 24.38357 -82.18374 35970 ft 363 kts 245°
2026-05-03 22:18 24.36169 -82.23352 35977 ft 363 kts 245°
2026-05-03 22:18 24.33978 -82.28334 35974 ft 362 kts 245°
2026-05-03 22:19 24.31788 -82.33311 35977 ft 363 kts 245°
2026-05-03 22:19 24.29596 -82.38290 35973 ft 362 kts 245°
2026-05-03 22:20 24.27417 -82.43233 35980 ft 358 kts 245°
2026-05-03 22:20 24.25251 -82.48148 35971 ft 358 kts 245°
2026-05-03 22:21 24.22717 -82.52846 35977 ft 363 kts 232°
2026-05-03 22:21 24.20845 -82.54721 35977 ft 369 kts 221°
2026-05-03 22:21 24.18599 -82.56146 35961 ft 381 kts 210°
2026-05-03 22:21 24.16045 -82.57066 35983 ft 391 kts 199°
2026-05-03 22:22 24.13309 -82.57416 35977 ft 401 kts 188°
2026-05-03 22:22 24.10493 -82.57238 35639 ft 410 kts 186°
2026-05-03 22:22 24.07702 -82.57410 35089 ft 393 kts 198°
2026-05-03 22:22 24.05174 -82.58224 35020 ft 377 kts 210°
2026-05-03 22:23 24.02878 -82.59579 35186 ft 375 kts 220°
2026-05-03 22:23 24.00908 -82.61428 35406 ft 372 kts 231°
2026-05-03 22:23 23.99371 -82.63671 35775 ft 367 kts 242°
2026-05-03 22:23 23.98309 -82.66207 35911 ft 367 kts 252°
2026-05-03 22:24 23.97664 -82.68895 35966 ft 364 kts 256°
2026-05-03 22:24 23.96512 -82.74268 35978 ft 363 kts 255°
2026-05-03 22:25 23.95113 -82.79564 35974 ft 359 kts 252°
2026-05-03 22:25 23.93552 -82.84740 35969 ft 359 kts 252°
2026-05-03 22:26 23.91936 -82.89907 35978 ft 359 kts 251°
2026-05-03 22:26 23.89975 -82.94937 35958 ft 363 kts 247°
2026-05-03 22:27 23.87874 -82.99978 35983 ft 364 kts 246°
2026-05-03 22:27 23.85769 -83.05010 35974 ft 364 kts 246°
2026-05-03 22:28 23.83679 -83.10004 35979 ft 364 kts 246°
2026-05-03 22:28 23.81573 -83.15036 35977 ft 364 kts 246°
2026-05-03 22:29 23.79472 -83.20048 35980 ft 363 kts 247°
2026-05-03 22:29 23.77368 -83.25063 35975 ft 363 kts 247°
2026-05-03 22:30 23.75262 -83.30075 35981 ft 363 kts 247°
2026-05-03 22:30 23.73158 -83.35079 35982 ft 363 kts 247°
2026-05-03 22:31 23.71052 -83.40084 35977 ft 363 kts 247°
2026-05-03 22:31 23.68942 -83.45092 35977 ft 363 kts 247°
2026-05-03 22:32 23.66550 -83.49945 35971 ft 367 kts 235°
2026-05-03 22:32 23.64764 -83.51955 35978 ft 373 kts 224°
2026-05-03 22:32 23.62594 -83.53541 35990 ft 381 kts 214°
2026-05-03 22:32 23.60111 -83.54634 35964 ft 391 kts 203°
2026-05-03 22:33 23.57404 -83.55184 35982 ft 403 kts 193°
2026-05-03 22:33 23.54560 -83.55159 35983 ft 414 kts 182°
2026-05-03 22:33 23.51690 -83.54644 35980 ft 421 kts 177°
2026-05-03 22:34 23.46011 -83.53239 35963 ft 422 kts 175°
2026-05-03 22:34 23.40285 -83.51760 35980 ft 422 kts 175°
2026-05-03 22:35 23.34565 -83.50282 35974 ft 422 kts 175°
2026-05-03 22:35 23.28847 -83.48806 35960 ft 423 kts 174°
2026-05-03 22:36 23.23077 -83.47360 35988 ft 426 kts 175°
2026-05-03 22:36 23.17303 -83.45933 35971 ft 425 kts 175°
2026-05-03 22:37 23.11493 -83.44504 35989 ft 425 kts 175°
2026-05-03 22:37 23.05760 -83.43094 35976 ft 425 kts 175°
2026-05-03 22:38 22.99987 -83.41677 35981 ft 425 kts 175°
2026-05-03 22:38 22.94195 -83.40995 35969 ft 414 kts 191°
2026-05-03 22:39 22.88769 -83.42508 35990 ft 397 kts 212°
2026-05-03 22:39 22.84449 -83.45998 35980 ft 383 kts 233°
2026-05-03 22:40 22.81856 -83.50917 35983 ft 376 kts 254°
2026-05-03 22:40 22.80986 -83.56462 35983 ft 370 kts 264°
2026-05-03 22:41 22.80548 -83.62022 35979 ft 371 kts 265°
2026-05-03 22:41 22.80190 -83.67433 35979 ft 371 kts 265°
2026-05-03 22:42 22.79839 -83.73005 35980 ft 371 kts 265°
2026-05-03 22:42 22.79492 -83.78588 35976 ft 371 kts 265°
2026-05-03 22:43 22.79149 -83.84167 35979 ft 371 kts 265°
2026-05-03 22:43 22.78809 -83.89744 35975 ft 371 kts 265°
2026-05-03 22:44 22.78481 -83.95259 35975 ft 367 kts 265°
2026-05-03 22:44 22.78164 -84.00789 35979 ft 368 kts 265°
2026-05-03 22:45 22.77913 -84.05252 35976 ft 368 kts 265°
2026-05-03 22:45 22.77615 -84.10580 35982 ft 368 kts 265°
2026-05-03 22:46 22.77307 -84.16132 35975 ft 368 kts 265°
2026-05-03 22:46 22.77003 -84.21663 35979 ft 368 kts 265°
2026-05-03 22:47 22.76703 -84.27198 35975 ft 368 kts 265°
2026-05-03 22:47 22.76408 -84.32696 35974 ft 363 kts 265°
2026-05-03 22:48 22.76136 -84.37880 35981 ft 364 kts 265°
2026-05-03 22:48 22.75852 -84.43354 35973 ft 364 kts 265°
2026-05-03 22:49 22.75573 -84.48832 35978 ft 364 kts 265°
2026-05-03 22:49 22.75125 -84.54283 35966 ft 363 kts 257°
2026-05-03 22:49 22.74291 -84.56867 35979 ft 365 kts 246°
2026-05-03 22:50 22.73037 -84.59273 35985 ft 367 kts 242°
2026-05-03 22:50 22.70302 -84.63946 35969 ft 367 kts 240°
2026-05-03 22:51 22.67527 -84.68619 35973 ft 370 kts 240°
2026-05-03 22:51 22.64812 -84.73330 35968 ft 368 kts 244°
2026-05-03 22:52 22.62446 -84.78237 35975 ft 367 kts 245°
2026-05-03 22:52 22.60119 -84.83160 35969 ft 367 kts 245°
2026-05-03 22:53 22.57790 -84.88079 35974 ft 367 kts 245°
2026-05-03 22:53 22.55457 -84.92999 35970 ft 367 kts 245°
2026-05-03 22:54 22.53123 -84.97915 35976 ft 367 kts 245°
2026-05-03 22:54 22.50802 -85.02801 35973 ft 367 kts 245°
2026-05-03 22:55 22.48462 -85.07718 35976 ft 368 kts 245°
2026-05-03 22:55 22.46122 -85.12630 35974 ft 368 kts 245°
2026-05-03 22:56 22.43776 -85.17553 35976 ft 368 kts 245°
2026-05-03 22:56 22.41431 -85.22467 35973 ft 368 kts 245°
2026-05-03 22:57 22.39084 -85.27381 35976 ft 368 kts 245°
2026-05-03 22:57 22.36708 -85.32352 35983 ft 374 kts 245°
2026-05-03 22:58 22.34502 -85.37410 35971 ft 373 kts 244°
2026-05-03 22:58 22.33202 -85.39848 35829 ft 376 kts 242°
2026-05-03 22:58 22.31952 -85.42319 35465 ft 373 kts 245°
2026-05-03 22:58 22.30749 -85.44798 35119 ft 373 kts 245°
2026-05-03 22:59 22.29555 -85.47284 34777 ft 374 kts 245°
2026-05-03 22:59 22.28354 -85.49787 34343 ft 377 kts 245°
2026-05-03 22:59 22.27147 -85.52300 33884 ft 378 kts 245°
2026-05-03 22:59 22.25936 -85.54826 33253 ft 380 kts 245°
2026-05-03 23:00 22.24691 -85.57350 32637 ft 382 kts 243°
2026-05-03 23:00 22.23222 -85.59763 31961 ft 388 kts 237°
2026-05-03 23:00 22.21621 -85.62115 31260 ft 391 kts 237°
2026-05-03 23:00 22.19984 -85.64466 30578 ft 394 kts 236°
2026-05-03 23:01 22.18329 -85.66833 29879 ft 397 kts 236°
2026-05-03 23:01 22.16689 -85.69171 29096 ft 393 kts 236°
2026-05-03 23:01 22.15036 -85.71529 28315 ft 385 kts 236°
2026-05-03 23:01 22.13433 -85.73815 27550 ft 378 kts 236°
2026-05-03 23:02 22.11880 -85.76030 26814 ft 373 kts 236°
2026-05-03 23:02 22.10326 -85.78247 26105 ft 369 kts 236°
2026-05-03 23:02 22.08781 -85.80447 25397 ft 367 kts 236°
2026-05-03 23:02 22.07248 -85.82632 24698 ft 366 kts 236°
2026-05-03 23:03 22.05693 -85.84846 24032 ft 371 kts 235°
2026-05-03 23:03 22.04137 -85.87057 23349 ft 369 kts 236°
2026-05-03 23:03 22.02598 -85.89247 22575 ft 364 kts 235°
2026-05-03 23:03 22.01085 -85.91399 22092 ft 354 kts 235°
2026-05-03 23:04 21.99601 -85.93507 21963 ft 356 kts 235°
2026-05-03 23:04 21.98056 -85.95619 21910 ft 361 kts 232°
2026-05-03 23:04 21.96395 -85.97649 21880 ft 361 kts 231°
2026-05-03 23:04 21.94676 -85.99619 21868 ft 362 kts 227°
2026-05-03 23:05 21.92813 -86.01439 21344 ft 361 kts 225°
2026-05-03 23:05 21.90940 -86.03227 20550 ft 358 kts 224°
2026-05-03 23:05 21.89078 -86.04982 19805 ft 354 kts 224°
2026-05-03 23:05 21.87235 -86.06716 19095 ft 350 kts 224°
2026-05-03 23:06 21.85411 -86.08435 18400 ft 346 kts 224°
2026-05-03 23:06 21.83609 -86.10128 18074 ft 345 kts 224°
2026-05-03 23:06 21.81805 -86.11826 17963 ft 344 kts 224°
2026-05-03 23:06 21.80006 -86.13518 17903 ft 343 kts 224°
2026-05-03 23:07 21.78213 -86.15204 17880 ft 343 kts 224°
2026-05-03 23:07 21.76415 -86.16895 17869 ft 343 kts 224°
2026-05-03 23:07 21.74615 -86.18580 17851 ft 345 kts 224°
2026-05-03 23:07 21.72808 -86.20283 17859 ft 345 kts 224°
2026-05-03 23:08 21.71026 -86.21958 17856 ft 345 kts 224°
2026-05-03 23:08 21.69224 -86.23649 17115 ft 344 kts 224°
2026-05-03 23:08 21.67403 -86.25353 16332 ft 341 kts 224°
2026-05-03 23:08 21.65649 -86.27003 15603 ft 338 kts 224°
2026-05-03 23:09 21.63880 -86.28663 14885 ft 336 kts 224°
2026-05-03 23:09 21.62126 -86.30309 14189 ft 334 kts 224°
2026-05-03 23:09 21.60380 -86.31948 13963 ft 334 kts 224°
2026-05-03 23:09 21.58630 -86.33587 13837 ft 332 kts 224°
2026-05-03 23:10 21.56890 -86.35221 13782 ft 332 kts 224°
2026-05-03 23:10 21.55142 -86.36845 13765 ft 332 kts 224°
2026-05-03 23:10 21.53371 -86.38447 13756 ft 333 kts 223°
2026-05-03 23:10 21.51510 -86.39933 13760 ft 335 kts 217°
2026-05-03 23:11 21.49585 -86.41338 13764 ft 335 kts 217°
2026-05-03 23:11 21.47649 -86.42730 13763 ft 335 kts 217°
2026-05-03 23:11 21.45708 -86.44119 13760 ft 335 kts 217°
2026-05-03 23:11 21.43768 -86.45504 13760 ft 335 kts 217°
2026-05-03 23:12 21.41831 -86.46890 13765 ft 335 kts 217°
2026-05-03 23:12 21.39890 -86.48276 13761 ft 335 kts 217°
2026-05-03 23:12 21.37951 -86.49657 13762 ft 335 kts 217°
2026-05-03 23:12 21.36009 -86.51049 13650 ft 335 kts 217°
2026-05-03 23:13 21.34072 -86.52434 13467 ft 334 kts 217°
2026-05-03 23:13 21.32145 -86.53812 13288 ft 332 kts 217°
2026-05-03 23:13 21.30220 -86.55189 13109 ft 332 kts 217°
2026-05-03 23:13 21.28304 -86.56557 12934 ft 331 kts 217°
2026-05-03 23:14 21.26388 -86.57927 12755 ft 330 kts 217°
2026-05-03 23:14 21.24482 -86.59287 12569 ft 329 kts 217°
2026-05-03 23:14 21.22582 -86.60644 11891 ft 327 kts 216°
2026-05-03 23:14 21.20700 -86.61989 11222 ft 324 kts 216°
2026-05-03 23:15 21.18830 -86.63322 10574 ft 321 kts 216°
2026-05-03 23:15 21.16980 -86.64642 9948 ft 318 kts 216°
2026-05-03 23:15 21.15164 -86.65935 9561 ft 307 kts 215°
2026-05-03 23:15 21.13420 -86.67177 9220 ft 296 kts 216°
2026-05-03 23:16 21.11750 -86.68369 8776 ft 290 kts 215°
2026-05-03 23:16 21.10077 -86.69564 8228 ft 289 kts 215°
2026-05-03 23:16 21.08456 -86.70829 7920 ft 294 kts 226°
2026-05-03 23:16 21.07423 -86.72650 7834 ft 285 kts 255°
2026-05-03 23:17 21.07326 -86.74728 7582 ft 281 kts 283°
2026-05-03 23:17 21.08180 -86.76564 7423 ft 272 kts 308°
2026-05-03 23:17 21.09351 -86.78051 7257 ft 250 kts 311°
2026-05-03 23:17 21.10451 -86.79415 6797 ft 235 kts 307°
2026-05-03 23:18 21.11364 -86.80820 6348 ft 225 kts 304°
2026-05-03 23:18 21.12230 -86.82186 5878 ft 218 kts 303°
2026-05-03 23:18 21.13064 -86.83533 5390 ft 214 kts 303°
2026-05-03 23:18 21.13868 -86.84818 5069 ft 203 kts 303°
2026-05-03 23:19 21.14639 -86.86045 4712 ft 195 kts 303°
2026-05-03 23:19 21.15388 -86.87245 4244 ft 193 kts 303°
2026-05-03 23:19 21.16142 -86.88454 3989 ft 194 kts 303°
2026-05-03 23:19 21.16890 -86.89658 3790 ft 193 kts 303°
2026-05-03 23:20 21.17637 -86.90853 3586 ft 194 kts 304°
2026-05-03 23:20 21.18383 -86.92048 3399 ft 191 kts 304°
2026-05-03 23:20 21.19113 -86.93216 3162 ft 187 kts 304°
2026-05-03 23:20 21.19834 -86.94371 2910 ft 192 kts 304°
2026-05-03 23:21 21.20631 -86.95664 3030 ft 207 kts 304°
2026-05-03 23:21 21.21407 -86.96900 3039 ft 194 kts 305°
2026-05-03 23:21 21.22149 -86.98077 3015 ft 190 kts 305°
2026-05-03 23:21 21.22883 -86.99259 3000 ft 191 kts 304°
2026-05-03 23:22 21.24357 -87.01630 3015 ft 192 kts 305°
2026-05-03 23:22 21.25104 -87.02813 2994 ft 191 kts 304°
2026-05-03 23:22 21.25838 -87.03999 2998 ft 190 kts 305°
2026-05-03 23:23 21.26572 -87.05181 3004 ft 190 kts 305°
2026-05-03 23:23 21.27367 -87.06449 3030 ft 218 kts 305°
2026-05-03 23:23 21.28226 -87.07827 3037 ft 224 kts 305°
2026-05-03 23:23 21.28835 -87.09347 3011 ft 225 kts 278°
2026-05-03 23:24 21.28531 -87.10973 2988 ft 227 kts 241°
2026-05-03 23:24 21.27399 -87.12088 2979 ft 220 kts 204°
2026-05-03 23:24 21.25924 -87.12251 2995 ft 214 kts 171°
2026-05-03 23:24 21.24444 -87.11920 3018 ft 217 kts 165°
2026-05-03 23:25 21.22991 -87.11482 3012 ft 216 kts 162°
2026-05-03 23:25 21.21568 -87.10970 3000 ft 216 kts 157°
2026-05-03 23:25 21.20293 -87.10144 2984 ft 208 kts 141°
2026-05-03 23:25 21.19245 -87.09181 2969 ft 192 kts 134°
2026-05-03 23:26 21.18344 -87.08160 2978 ft 192 kts 130°
2026-05-03 23:26 21.17475 -87.07066 3010 ft 194 kts 129°
2026-05-03 23:26 21.16638 -87.05932 3029 ft 194 kts 123°
2026-05-03 23:26 21.15903 -87.04719 3039 ft 195 kts 121°
2026-05-03 23:27 21.15164 -87.03513 3023 ft 195 kts 122°
2026-05-03 23:27 21.14408 -87.02307 2808 ft 193 kts 123°
2026-05-03 23:27 21.13662 -87.01142 2607 ft 186 kts 123°
2026-05-03 23:27 21.12952 -87.00036 2432 ft 175 kts 122°
2026-05-03 23:28 21.12286 -86.98979 2244 ft 165 kts 120°
2026-05-03 23:28 21.11685 -86.98015 2076 ft 148 kts 121°
2026-05-03 23:28 21.11125 -86.97124 1922 ft 145 kts 122°
2026-05-03 23:28 21.10664 -86.96179 1738 ft 144 kts 97°
2026-05-03 23:29 21.10869 -86.95162 1593 ft 142 kts 83°
2026-05-03 23:29 21.10475 -86.94199 1520 ft 147 kts 129°
2026-05-03 23:29 21.09861 -86.93328 1292 ft 147 kts 124°
2026-05-03 23:29 21.09156 -86.92564 1182 ft 144 kts 138°
2026-05-03 23:30 21.08431 -86.91812 1003 ft 145 kts 131°
2026-05-03 23:30 21.07735 -86.91039 933 ft 144 kts 133°
2026-05-03 23:30 21.07041 -86.90329 724 ft 131 kts 136°
2026-05-03 23:30 21.06457 -86.89655 476 ft 118 kts 128°
2026-05-03 23:31 21.06005 -86.88955 320 ft 116 kts 128°
2026-05-03 23:31 21.05546 -86.88255 113 ft 115 kts 126°
2026-05-03 23:31 21.05124 -86.87581 38 ft 96 kts 123°
2026-05-03 23:31 21.04827 -86.87115 36 ft 51 kts 125°
2026-05-03 23:32 21.04659 -86.86839 38 ft 42 kts 125°
2026-05-03 23:32 21.04492 -86.86589 38 ft 40 kts 123°
2026-05-03 23:32 21.04307 -86.86394 38 ft 22 kts 150°
2026-05-03 23:32 21.04187 -86.86333 41 ft 19 kts 156°
2026-05-03 23:33 21.04084 -86.86248 41 ft 20 kts 126°
2026-05-03 23:33 21.03973 -86.86260 54 ft 19 kts 214°
2026-05-03 23:33 21.03809 -86.86377 57 ft 27 kts 216°
2026-05-03 23:33 21.03718 -86.86442 48 ft 14 kts 212°
2026-05-03 23:34 21.03613 -86.86517 42 ft 21 kts 213°
2026-05-03 23:34 21.03484 -86.86609 42 ft 23 kts 213°
2026-05-03 23:34 21.03348 -86.86705 41 ft 23 kts 213°
2026-05-03 23:34 21.03289 -86.86793 40 ft 14 kts 286°
2026-05-03 23:35 21.03323 -86.86851 40 ft 15 kts 310°
2026-05-03 23:35 21.03415 -86.86993 40 ft 29 kts 306°
2026-05-03 23:35 21.03532 -86.87188 41 ft 33 kts 302°
2026-05-03 23:35 21.03663 -86.87396 41 ft 35 kts 303°
2026-05-03 23:36 21.03800 -86.87615 41 ft 37 kts 303°
2026-05-03 23:36 21.03926 -86.87813 41 ft 30 kts 303°
2026-05-03 23:36 21.04036 -86.87995 40 ft 28 kts 303°
2026-05-03 23:36 21.04144 -86.88161 40 ft 26 kts 307°
2026-05-03 23:37 21.04244 -86.88317 41 ft 26 kts 305°
2026-05-03 23:37 21.04344 -86.88480 41 ft 26 kts 303°
2026-05-03 23:37 21.04430 -86.88604 41 ft 15 kts 323°
2026-05-03 23:37 21.04520 -86.88584 41 ft 14 kts 34°
2026-05-03 23:38 21.04595 -86.88531 42 ft 12 kts 32°
2026-05-03 23:38 21.04670 -86.88479 42 ft 13 kts 31°
2026-05-03 23:38 21.04746 -86.88427 42 ft 12 kts 32°
2026-05-03 23:38 21.04814 -86.88377 42 ft 10 kts 42°
2026-05-03 23:39 21.04805 -86.88334 42 ft 5 kts 121°
2026-05-03 23:39 21.04787 -86.88314 42 ft 3 kts 139°
2026-05-03 23:39 21.04775 -86.88302 42 ft 2 kts 138°
2026-05-03 23:39 21.04770 -86.88297 40 ft 1 kts 139°
2026-05-03 23:40 21.04768 -86.88295 40 ft 0 kts 139°